CAPE
0 0 0 3 0 0 0 0 6 0 0 0 1 8 1 1 3 0 0 0 1 99 308 545 606 647 550 592 719 617 682 188 0 0 0 0 0 0 0 0 0 0 0 0
0 0 0 0 0 0 0 3 19 15 1 5 0 1 9 4 4 0 0 0 0 178 501 875 840 500 234 206 77 304 7 0 0 0 0 0 0 0 0 0 0 0 0 0
0 0 0 0 0 0 0 0 0 0 0 0 4 24 7 4 0 0 0 0 0 212 631 710 580 178 15 11 0 0 0 0 0 0 0 0 0 0 0 0 0 0 0 0
0 14 1 0 0 0 0 0 0 0 0 0 0 0 0 0 0 0 0 1 6 253 265 179 57 0 0 0 0 0 0 0 0 0 0 0 0 0 0 0 0 0 0 0
6 6 0 0 0 0 0 0 0 0 0 0 0 0 7 0 1 3 2 0 49 6 2 0 0 0 0 0 0 0 0 0 0 0 0 0 0 0 0 0 0 0 0 0
0 23 1 0 0 0 0 0 0 0 0 0 0 1 6 0 6 0 0 0 0 0 0 0 0 0 0 0 0 0 0 0 0 0 0 0 0 0 0 0 0 0 0 0
1 1 3 10 0 0 0 0 0 16 6 21 0 0 0 0 0 0 0 0 0 0 0 0 0 0 0 0 0 0 0 0 0 0 0 0 0 0 0 0 0 0 0 0
4 4 14 0 27 8 0 0 32 17 11 0 10 0 0 0 0 0 0 0 0 0 0 0 0 0 0 0 0 0 0 0 0 0 0 0 0 0 0 0 0 0 0 0
7 0 9 0 0 0 0 0 6 24 14 7 3 0 0 0 0 0 0 0 0 0 0 0 0 0 0 0 0 0 0 0 0 0 0 0 0 0 0 0 0 0 0 0
0 0 0 0 0 0 0 0 0 0 0 0 25 0 0 0 0 0 0 0 0 0 0 0 0 0 0 0 0 0 0 0 0 0 0 0 0 0 0 0 0 0 0 0
2 0 2 0 0 11 0 0 0 0 0 0 1 0 0 0 0 0 0 0 0 0 0 0 0 0 0 0 0 0 0 0 0 0 0 0 0 0 0 0 0 0 0 0
20 56 81 47 0 0 12 0 16 0 0 0 0 0 0 0 0 0 0 0 0 0 0 0 0 0 0 0 0 0 0 0 0 0 0 0 0 0 0 0 0 0 0 0
36 2 18 0 0 0 0 0 1 0 0 0 0 0 0 0 0 0 0 0 0 0 0 0 0 0 0 0 0 0 0 0 0 0 0 0 0 0 0 0 0 0 0 0
0 0 1 0 0 0 0 0 0 0 0 0 0 0 0 0 0 0 0 0 0 0 0 0 0 0 0 0 0 0 0 0 0 0 0 0 0 0 0 0 0 0 0 0
0 0 0 0 0 0 0 0 0 0 0 0 0 0 0 0 0 0 0 0 0 0 0 0 0 0 0 0 0 0 0 0 0 0 0 0 0 0 0 0 0 0 0 0
0 0 0 0 0 0 0 0 0 0 0 0 0 0 0 0 0 0 0 0 0 0 0 0 0 0 0 0 0 0 0 0 0 0 0 0 0 0 0 0 0 0 0 0
1 2 0 0 1 1 1 1 0 0 0 0 0 0 0 0 0 0 0 0 0 0 0 0 1 0 1 1 0 0 0 0 0 0 0 0 0 0 0 0 0 0 0 0
7 4 3 3 5 4 4 5 2 2 2 1 0 0 0 0 0 0 0 0 0 0 0 0 0 0 0 0 0 0 0 1 0 0 0 0 0 0 0 0 0 0 0 0
2 3 3 4 3 3 2 3 2 1 0 0 0 0 0 0 0 0 0 0 0 0 0 0 3 0 1 2 1 0 0 0 0 1 0 0 0 0 0 0 0 0 0 0
2 2 2 2 1 1 1 0 0 0 0 0 0 0 0 0 0 0 0 0 0 1 3 2 1 1 1 0 0 1 0 0 0 0 0 0 0 0 0 0 0 0 0 0
0 0 0 0 0 0 0 0 0 0 0 0 0 0 0 0 0 0 0 0 2 2 2 0 2 1 0 0 2 0 0 0 0 0 0 0 0 0 0 0 0 0 0 0
0 0 0 0 0 0 0 0 0 0 0 0 0 0 0 0 0 0 0 0 5 0 1 1 1 0 0 0 1 0 0 0 0 0 0 0 0 0 0 0 0 0 0 0
0 1 0 0 0 0 0 0 0 0 0 0 0 0 0 0 1 0 0 3 1 0 0 0 0 0 0 0 0 0 0 0 0 0 0 0 0 0 0 0 0 0 0 0
1 1 1 0 0 1 2 3 3 2 0 1 0 0 1 0 0 1 0 0 0 0 0 0 0 0 0 0 0 0 0 0 0 0 0 0 0 0 0 0 0 0 0 0
2 1 0 0 2 2 1 0 1 4 2 4 2 3 0 0 0 0 0 0 0 0 0 0 0 0 0 0 0 0 0 0 0 0 0 0 0 0 0 0 0 0 0 0
1 1 1 1 0 0 1 0 0 0 3 0 0 0 0 0 0 0 0 0 0 0 0 0 0 0 0 0 0 0 0 0 0 0 0 0 0 0 0 0 0 0 0 0
0 0 0 0 0 0 0 0 0 0 0 0 0 0 0 0 0 0 0 0 0 0 0 0 0 0 0 0 0 0 0 0 0 0 0 0 0 0 0 0 0 0 0 0
CIN
-0 -0 -0 -5 -0 -0 -0 -0 -25 -0 -14 -0 -21 -88 -89 -100 -157 -0 -0 -0 -20 -170 -176 -192 -222 -276 -346 -310 -250 -253 -235 -372 -0 -0 -0 -0 -0 -0 -0 -0 -0 -0 -0 -0
-0 -0 -0 -0 -0 -0 -0 -28 -38 -33 -7 -51 -0 -79 -122 -105 -58 -0 -0 -0 -0 -142 -157 -153 -196 -374 -456 -448 -531 -400 -496 -0 -0 -0 -0 -0 -0 -0 -0 -0 -0 -0 -0 -0
-0 -0 -0 -0 -0 -0 -0 -0 -0 -0 -0 -0 -46 -52 -65 -108 -0 -0 -0 -0 -0 -170 -180 -209 -255 -467 -583 -387 -0 -0 -0 -0 -0 -0 -0 -0 -0 -0 -0 -0 -0 -0 -0 -0
-0 -18 -1 -0 -0 -0 -0 -0 -0 -0 -0 -0 -0 -0 -0 -65 -36 -0 -0 -103 -172 -274 -309 -360 -474 -69 -0 -0 -0 -0 -0 -0 -0 -0 -0 -0 -0 -0 -0 -0 -0 -0 -0 -0
-10 -16 -0 -0 -0 -0 -0 -0 -0 -0 -0 -0 -0 -0 -107 -0 -162 -161 -254 -39 -387 -78 -88 -0 -0 -0 -0 -0 -0 -0 -0 -0 -0 -0 -0 -0 -0 -0 -0 -0 -0 -0 -0 -0
-3 -10 -3 -0 -0 -0 -0 -0 -0 -0 -0 -0 -0 -22 -81 -0 -274 -0 -0 -0 -0 -0 -0 -0 -0 -0 -0 -0 -0 -0 -0 -0 -0 -0 -0 -0 -0 -0 -0 -0 -0 -0 -0 -0
-0 -0 -7 -57 -0 -0 -6 -0 -0 -76 -63 -25 -0 -0 -0 -0 -0 -0 -0 -0 -0 -0 -0 -0 -0 -0 -0 -0 -0 -0 -0 -0 -0 -0 -0 -0 -0 -0 -0 -0 -0 -0 -0 -0
-0 -3 -10 -0 -82 -29 -0 -0 -53 -22 -56 -0 -112 -0 -0 -0 -0 -0 -0 -0 -0 -0 -0 -0 -0 -0 -0 -0 -0 -0 -0 -0 -0 -0 -0 -0 -0 -0 -0 -0 -0 -0 -0 -0
-144 -0 -95 -0 -0 -0 -0 -0 -22 -52 -75 -138 -206 -0 -0 -0 -0 -0 -0 -0 -0 -0 -0 -0 -0 -0 -0 -0 -0 -0 -0 -0 -0 -0 -0 -0 -0 -0 -0 -0 -0 -0 -0 -0
-141 -0 -20 -0 -0 -0 -0 -0 -0 -0 -0 -0 -137 -0 -0 -0 -0 -0 -0 -0 -0 -0 -0 -0 -0 -0 -0 -0 -0 -0 -0 -0 -0 -0 -0 -0 -0 -0 -0 -0 -0 -0 -0 -0
-58 -0 -103 -0 -0 -180 -0 -0 -0 -0 -0 -40 -117 -0 -0 -0 -0 -0 -0 -0 -0 -0 -0 -0 -0 -0 -0 -0 -0 -0 -0 -0 -0 -0 -0 -0 -0 -0 -0 -0 -0 -0 -0 -0
-43 -50 -55 -57 -0 -0 -46 -0 -2 -39 -0 -0 -0 -0 -0 -0 -0 -0 -0 -0 -0 -0 -0 -0 -0 -0 -0 -0 -0 -0 -0 -0 -0 -0 -0 -0 -0 -0 -0 -0 -0 -0 -0 -0
-117 -4 -53 -0 -4 -0 -2 -0 -191 -0 -0 -0 -0 -0 -0 -0 -0 -0 -0 -0 -0 -0 -0 -0 -0 -0 -0 -0 -0 -0 -0 -0 -0 -0 -0 -0 -0 -0 -0 -0 -0 -0 -0 -0
-0 -0 -46 -0 -0 -0 -0 -0 -0 -0 -0 -0 -0 -0 -0 -0 -0 -0 -0 -0 -0 -0 -0 -0 -0 -0 -0 -0 -0 -0 -0 -0 -0 -0 -0 -0 -0 -0 -0 -0 -0 -0 -0 -0
-0 -0 -0 -0 -0 -0 -0 -0 -0 -0 -0 -0 -0 -0 -0 -0 -0 -0 -0 -0 -0 -0 -0 -0 -0 -0 -0 -0 -0 -0 -0 -0 -0 -0 -0 -0 -0 -0 -0 -0 -0 -0 -0 -0
-0 -0 -0 -0 -0 -0 -0 -0 -0 -0 -0 -0 -0 -0 -0 -0 -0 -0 -0 -0 -0 -0 -0 -0 -0 -0 -0 -0 -0 -0 -0 -0 -0 -0 -0 -0 -0 -0 -0 -0 -0 -0 -0 -0
-0 -0 -0 -0 -0 -0 -0 -0 -0 -0 -0 -0 -0 -0 -0 -0 -0 -0 -0 -0 -0 -0 -0 -0 -0 -0 -0 -0 -0 -0 -0 -0 -0 -0 -0 -0 -0 -0 -0 -0 -0 -0 -0 -0
-0 -0 -0 -0 -0 -0 -0 -0 -0 -0 -0 -0 -0 -0 -0 -0 -0 -0 -0 -0 -0 -0 -0 -0 -0 -0 -0 -0 -0 -0 -0 -0 -0 -0 -0 -0 -0 -0 -0 -0 -0 -0 -0 -0
-0 -0 -0 -0 -0 -0 -0 -0 -0 -0 -0 -0 -0 -0 -0 -0 -0 -0 -0 -0 -0 -0 -0 -0 -0 -0 -0 -0 -0 -0 -0 -0 -0 -0 -0 -0 -0 -0 -0 -0 -0 -0 -0 -0
-0 -0 -0 -0 -0 -0 -0 -0 -0 -0 -0 -0 -0 -0 -0 -0 -0 -0 -0 -0 -0 -0 -0 -0 -0 -0 -0 -0 -0 -0 -0 -0 -0 -0 -0 -0 -0 -0 -0 -0 -0 -0 -0 -0
-0 -0 -0 -0 -0 -0 -0 -0 -0 -0 -0 -0 -0 -0 -0 -0 -0 -0 -0 -0 -0 -0 -0 -0 -0 -0 -0 -0 -0 -0 -0 -0 -0 -0 -0 -0 -0 -0 -0 -0 -0 -0 -0 -0
-0 -0 -0 -0 -0 -0 -0 -0 -0 -0 -0 -0 -0 -0 -0 -0 -0 -0 -0 -0 -0 -0 -0 -0 -0 -0 -0 -0 -0 -0 -0 -0 -0 -0 -0 -0 -0 -0 -0 -0 -0 -0 -0 -0
-0 -0 -0 -0 -0 -0 -0 -0 -0 -0 -0 -0 -0 -0 -0 -0 -0 -0 -0 -0 -0 -0 -0 -0 -0 -0 -0 -0 -0 -0 -0 -0 -0 -0 -0 -0 -0 -0 -0 -0 -0 -0 -0 -0
-0 -0 -0 -0 -1 -0 -0 -0 -0 -0 -0 -0 -0 -0 -0 -0 -0 -0 -0 -0 -0 -0 -0 -0 -0 -0 -0 -0 -0 -0 -0 -0 -0 -0 -0 -0 -0 -0 -0 -0 -0 -0 -0 -0
-0 -0 -0 -0 -0 -0 -0 -0 -0 -0 -0 -0 -0 -0 -0 -0 -0 -0 -0 -0 -0 -0 -0 -0 -0 -0 -0 -0 -0 -0 -0 -0 -0 -0 -0 -0 -0 -0 -0 -0 -0 -0 -0 -0
-0 -0 -0 -0 -0 -0 -0 -0 -0 -0 -0 -0 -0 -0 -0 -0 -0 -0 -0 -0 -0 -0 -0 -0 -0 -0 -0 -0 -0 -0 -0 -0 -0 -0 -0 -0 -0 -0 -0 -0 -0 -0 -0 -0
-0 -0 -0 -0 -0 -0 -0 -0 -0 -0 -0 -0 -0 -0 -0 -0 -0 -0 -0 -0 -0 -0 -0 -0 -0 -0 -0 -0 -0 -0 -0 -0 -0 -0 -0 -0 -0 -0 -0 -0 -0 -0 -0 -0
Wind_Speed
15 13 13 11 16 15 14 15 11 6 8 8 11 11 6 6 1 3 5 6 8 8 7 7 7 8 9 6 9 10 12 10 10 10 10 9 9 9 9 8 7 7 8 6
5 9 16 18 15 19 15 5 10 12 13 14 15 7 9 13 9 9 9 9 8 8 8 8 8 9 10 9 9 9 11 13 12 13 12 10 9 8 8 7 7 7 6 9
14 5 6 16 18 13 6 11 11 11 12 9 6 10 11 11 15 12 9 8 9 10 12 11 10 13 11 8 10 12 12 11 12 11 11 10 10 10 9 8 7 8 8 9
5 6 11 10 11 10 8 11 10 3 3 6 6 9 11 9 11 7 8 8 8 9 8 8 10 13 13 10 12 12 11 11 12 12 12 11 11 10 9 7 8 7 7 7
6 12 4 8 5 7 8 11 6 5 7 7 9 4 0 7 4 8 9 8 7 7 9 9 11 10 12 13 11 12 11 12 12 12 12 11 11 10 8 9 7 5 6 7
2 7 17 3 11 8 4 11 4 5 6 9 3 3 6 6 9 9 9 9 10 9 10 12 7 10 12 9 11 10 9 11 11 11 13 12 11 10 7 7 7 6 6 7
3 3 7 6 6 6 9 3 8 6 4 4 4 7 6 9 6 8 9 12 9 10 11 9 10 12 11 9 8 9 11 11 10 11 12 10 9 8 8 8 9 6 6 5
3 3 6 12 8 4 8 12 12 11 5 2 7 8 9 8 12 11 12 12 11 11 9 7 10 12 11 11 9 9 10 12 12 11 9 8 8 7 7 7 7 6 8 7
9 7 7 4 6 2 4 11 13 4 10 8 9 8 10 10 11 11 12 10 9 11 9 7 9 12 13 8 12 13 13 12 11 10 9 7 6 6 5 7 6 5 7 8
6 7 9 9 3 10 13 12 13 10 1 3 7 8 7 9 9 9 8 8 7 10 9 7 9 10 11 12 12 13 12 10 7 7 8 8 8 7 7 5 5 4 6 6
3 3 4 6 5 4 16 21 18 8 6 4 8 8 7 6 7 7 9 7 9 8 7 7 10 11 11 10 10 9 8 7 7 8 10 9 8 6 7 5 5 6 4 4
6 9 7 7 15 14 9 4 17 8 9 6 2 9 7 7 7 8 9 9 11 9 13 10 10 8 6 7 9 9 9 6 5 7 6 7 8 8 14 13 15 15 13 9
4 8 4 2 11 8 4 4 9 8 8 8 2 8 9 7 7 9 11 12 12 13 14 12 13 13 10 10 13 11 9 8 6 7 6 7 6 6 7 6 10 11 11 11
14 12 6 11 4 5 3 6 7 9 6 6 3 7 8 8 10 12 13 15 16 17 17 16 16 14 11 13 13 11 11 14 8 6 6 6 5 4 5 5 4 3 6 7
18 11 7 6 5 8 6 8 7 10 12 11 8 12 16 17 16 16 16 19 20 19 17 17 17 14 13 14 15 13 11 8 7 6 6 7 6 5 4 4 3 2 2 4
14 13 14 11 11 15 15 17 14 14 15 16 17 18 19 20 21 17 18 15 20 16 15 17 17 13 12 13 13 11 11 12 8 5 5 4 4 4 4 4 3 3 2 4
10 12 12 14 13 15 15 13 13 14 14 16 16 15 19 22 22 21 19 18 18 17 15 16 14 13 13 11 10 7 6 5 7 6 5 4 4 4 3 3 2 2 2 1
11 11 11 12 11 13 15 15 14 15 15 16 16 16 18 20 19 17 15 15 17 17 15 13 12 13 12 11 9 6 6 5 5 4 4 4 3 3 2 2 2 2 2 1
14 15 16 17 15 14 14 14 15 15 15 15 19 19 17 16 15 15 15 16 15 14 10 11 13 11 10 10 8 5 5 5 3 2 3 2 2 1 2 2 1 1 1 2
15 16 17 18 18 16 16 14 16 16 15 16 17 18 18 15 13 14 15 15 11 8 8 9 9 9 8 8 7 4 4 4 4 3 2 2 2 1 2 3 2 1 2 2
15 15 17 17 16 17 15 14 15 16 14 15 16 15 14 12 10 10 12 10 10 10 12 12 8 6 5 6 5 4 4 3 3 4 3 3 3 3 3 2 3 3 3 3
13 14 16 16 17 17 16 15 15 15 15 14 13 12 13 13 12 13 10 8 5 12 8 6 6 9 6 7 5 4 5 5 4 3 3 2 2 2 2 2 2 1 1 2
13 14 15 16 16 16 15 15 15 16 15 13 12 13 12 9 7 7 8 10 8 9 7 5 6 8 8 6 5 4 4 4 3 3 4 5 5 4 3 3 2 2 2 2
14 14 13 13 13 14 15 13 14 14 14 14 15 12 9 8 9 8 8 9 10 8 5 4 5 7 6 5 6 5 4 4 3 2 3 4 3 4 4 4 3 2 1 1
14 15 15 14 13 11 13 13 10 11 12 13 13 11 12 8 7 5 5 6 7 5 4 4 7 8 5 4 4 4 4 5 5 4 4 3 3 3 3 3 2 2 2 2
12 10 10 13 10 9 8 8 8 9 7 8 9 8 8 7 7 7 6 7 8 9 7 5 6 5 4 4 4 4 3 3 4 3 3 3 3 3 3 3 3 3 2 2
10 11 8 9 8 8 7 8 8 8 7 7 8 8 8 7 7 6 6 6 6 5 5 4 5 5 5 4 4 4 3 3 4 3 3 3 3 2 3 2 2 3 3 3
Wind_Direction
218 196 226 217 226 232 235 225 206 224 210 239 229 243 201 120 6 305 227 218 179 175 172 158 130 102 107 113 160 153 157 135 129 116 114 112 116 123 129 123 130 133 136 130
244 199 219 250 269 233 246 223 227 229 241 241 246 181 185 175 197 217 203 198 178 152 142 131 120 108 104 110 92 113 119 124 123 119 122 120 116 118 106 107 117 120 118 126
224 210 249 266 238 254 235 253 247 212 222 235 224 188 194 212 214 198 183 175 161 157 157 154 137 127 117 112 111 110 112 118 123 125 120 119 117 113 117 118 116 114 117 119
211 119 215 254 196 233 239 244 259 258 240 258 250 246 210 203 202 193 166 161 145 136 128 132 127 123 127 119 115 118 119 118 116 118 118 114 113 112 111 114 116 116 113 117
191 204 281 272 221 175 201 256 236 252 273 270 268 256 53 137 130 157 153 146 134 120 122 114 121 123 120 125 124 121 123 125 126 126 118 118 117 117 115 115 117 125 130 126
353 181 227 98 246 277 318 262 247 246 271 246 259 175 231 197 136 126 120 131 127 119 116 117 116 112 112 114 116 119 123 122 121 120 123 125 129 130 132 131 132 125 127 137
6 299 299 299 191 174 239 279 281 249 211 281 193 203 182 146 102 128 137 134 119 122 129 129 119 115 109 108 113 115 113 116 112 116 119 121 120 121 128 129 129 123 130 105
233 271 273 19 359 171 332 320 286 255 261 255 173 147 156 138 142 144 138 136 129 128 130 126 120 119 118 116 121 111 105 108 116 118 126 127 133 137 137 125 123 132 105 90
168 215 253 250 238 238 286 318 309 345 338 290 168 164 163 158 153 149 144 136 127 130 124 120 117 126 126 134 121 119 119 125 131 136 142 148 140 133 109 117 121 129 122 124
144 221 231 273 332 353 342 329 311 312 10 322 178 165 167 155 145 142 135 131 116 122 125 119 122 122 122 121 124 127 131 137 135 130 113 92 93 94 103 105 101 94 104 120
269 282 208 150 117 343 337 318 302 304 294 270 161 177 168 154 141 129 130 112 117 111 105 94 107 110 118 125 125 121 113 111 108 95 98 90 78 87 94 56 91 109 90 99
219 213 160 174 184 184 197 247 282 304 308 306 106 173 146 138 136 130 127 120 117 109 103 104 97 96 99 102 108 107 103 87 85 104 99 95 98 83 72 90 92 93 100 109
353 315 231 185 81 29 25 15 308 306 325 297 306 140 139 136 138 118 115 117 114 108 102 87 72 58 44 72 87 86 88 80 66 73 92 106 109 116 114 86 95 106 111 122
0 359 33 46 360 335 17 343 333 321 317 323 265 128 111 99 90 109 111 109 100 92 88 88 82 70 64 79 83 79 71 61 62 56 64 74 76 111 126 144 148 152 154 143
351 0 7 341 23 31 26 16 9 9 7 14 32 93 100 92 89 88 87 92 89 83 78 78 76 68 67 72 74 73 75 69 61 55 54 53 50 57 72 74 81 112 125 113
329 17 14 12 45 38 37 25 42 29 32 32 48 53 69 75 82 71 79 76 87 82 78 76 73 72 66 68 74 70 68 70 81 71 69 70 61 60 68 64 53 39 69 132
11 15 7 25 42 42 45 45 56 58 56 56 58 67 74 80 77 73 73 75 76 71 69 69 67 59 59 63 78 75 75 68 68 68 67 54 43 45 48 58 46 25 83 91
42 42 41 48 52 54 48 52 56 60 65 72 67 62 68 74 84 82 79 77 73 67 58 59 62 63 61 59 61 64 69 71 71 63 71 62 33 1 51 43 33 51 45 168
56 59 58 59 60 65 64 55 60 61 63 69 75 74 69 67 75 80 79 74 72 72 59 61 66 63 60 66 60 59 59 60 63 89 84 65 340 342 47 35 63 3 343 331
62 63 64 63 57 59 64 60 65 63 62 70 77 75 73 70 72 75 75 73 70 80 77 71 70 65 57 47 58 56 54 43 40 41 63 18 327 65 337 332 332 352 19 17
59 62 65 68 67 64 62 63 70 69 68 69 74 78 80 78 74 80 82 83 72 73 67 55 58 53 42 25 52 46 52 45 42 24 13 11 10 10 16 21 25 30 31 31
62 65 66 67 66 65 59 62 64 67 65 67 69 74 78 75 74 73 69 85 92 75 67 57 50 36 24 6 45 39 44 37 24 14 11 7 12 21 18 14 21 18 2 340
61 64 66 64 65 69 66 61 61 61 60 56 63 65 62 65 64 74 72 64 76 80 76 62 47 35 19 27 42 43 37 34 18 10 29 26 19 7 347 345 343 336 329 335
49 48 53 57 59 61 65 61 62 61 60 57 52 55 68 77 67 60 66 73 78 76 78 70 47 36 23 31 38 31 21 16 36 14 351 6 18 11 7 349 330 318 332 61
54 53 50 47 50 50 52 47 53 63 63 63 57 57 65 53 71 75 69 69 97 91 80 50 38 41 51 42 32 22 11 12 8 17 32 31 13 357 337 331 329 343 353 13
59 59 59 55 54 45 42 46 50 35 60 61 51 52 49 45 45 59 52 49 57 52 47 39 44 34 41 23 16 16 10 11 21 17 18 17 12 358 342 346 355 11 347 316
47 44 52 52 47 49 51 51 47 38 37 48 58 44 45 40 32 33 41 51 51 43 39 32 39 40 31 20 5 3 2 356 10 21 20 7 346 340 8 6 341 320 309 302